Wind_Gust
24 24 24 24 24 24 23 23 22 21 21 21 21 21 21 21 20 21 21 21 22 21 21 21 20 19 18 20 20 18 18 9 9 7 7 11 9 8 8 5 7 5 6 4 8 12 10 12 11 13 14 5 7 5 8 6 7 6 13 12 13 10 9 8 11 10 5 13 14 8 8 17 18 17 20 18 17 18 21 13 12 18 16 14 17 29 29 28
24 24 24 24 25 24 23 23 22 22 21 21 21 21 21 20 20 21 21 21 21 22 21 20 20 19 19 17 19 17 16 4 7 6 16 8 6 9 7 5 7 6 6 6 6 4 6 10 6 12 12 5 3 7 3 10 8 10 8 10 12 10 13 7 7 12 13 17 20 13 11 7 12 9 16 16 21 18 20 15 14 13 19 23 26 27 29 27
24 24 24 24 25 24 25 24 23 23 22 21 21 21 21 21 20 21 21 21 22 22 21 21 19 19 18 15 14 13 11 6 4 8 9 9 8 9 8 5 8 6 2 2 2 4 4 8 8 6 8 6 5 6 3 12 7 7 10 10 9 10 9 10 11 14 13 13 23 15 12 8 10 10 9 10 12 17 15 13 13 12 15 22 25 27 28 27
24 24 25 25 24 25 25 24 24 22 22 21 21 21 21 21 21 20 21 22 21 22 21 20 19 18 17 15 12 12 5 4 4 7 6 5 6 9 7 8 8 6 4 3 5 4 4 8 10 7 8 8 8 3 7 10 9 9 8 11 10 8 6 9 9 12 16 14 18 13 9 13 8 8 7 7 12 16 17 6 11 16 17 22 28 29 28 28
24 24 25 25 25 25 25 25 24 23 22 22 21 21 21 22 21 21 21 22 22 21 21 20 19 17 16 13 13 7 5 11 7 4 7 7 7 8 8 9 8 4 3 5 5 4 6 8 6 5 7 5 4 3 7 6 9 7 10 9 11 5 7 12 14 15 12 12 11 10 9 12 7 4 8 5 5 9 11 14 15 11 17 25 25 29 27 28
24 24 25 25 25 25 25 25 25 24 23 23 21 21 21 21 21 20 21 22 22 21 20 19 18 16 14 12 6 3 5 8 7 6 7 9 8 8 8 10 9 4 3 6 6 9 9 8 8 7 7 6 2 6 10 7 7 12 13 10 11 12 12 8 14 10 11 12 8 11 5 6 6 9 5 5 8 8 12 11 12 12 18 16 21 27 24 26
25 25 25 25 26 26 26 26 25 24 24 23 22 22 22 21 21 21 21 22 21 20 19 18 17 18 17 11 2 7 7 15 4 11 10 9 9 7 10 9 8 5 5 7 7 9 7 7 10 5 6 7 5 6 9 7 6 13 21 8 16 10 13 12 13 15 11 6 12 12 5 7 7 12 4 6 9 12 12 13 9 16 19 19 19 16 25 31
25 26 26 26 26 26 26 26 25 25 24 23 22 22 22 22 21 22 21 21 20 19 18 16 17 16 14 6 5 8 4 11 13 6 12 10 9 9 11 5 4 4 4 6 5 8 6 11 7 6 10 6 6 6 6 10 6 11 18 6 9 8 11 10 12 11 11 9 12 6 10 9 9 11 5 6 10 9 8 9 11 10 16 13 18 15 18 18
25 26 26 26 26 26 26 26 26 25 24 23 23 22 22 22 21 21 22 21 20 18 17 15 15 13 5 3 6 7 7 10 9 10 11 10 10 8 7 5 6 4 5 5 5 8 5 5 7 2 4 7 4 8 8 6 10 7 7 12 11 11 8 8 6 6 6 8 4 11 9 13 13 8 9 10 10 10 9 9 9 9 11 13 13 16 15 16
25 26 26 27 27 27 27 26 26 26 25 24 23 23 23 22 21 21 21 21 19 17 16 13 14 12 6 5 7 11 10 7 8 11 13 13 9 6 7 11 7 4 4 8 4 3 5 8 8 6 8 4 7 9 6 5 8 10 7 7 11 12 7 7 4 6 6 7 8 6 7 16 15 10 12 8 10 7 9 5 6 10 10 11 13 16 15 14
25 26 26 27 27 27 27 27 27 26 26 25 24 24 24 23 22 21 21 20 19 17 14 13 10 9 4 4 8 7 11 12 6 10 13 12 9 7 9 7 7 4 6 12 5 5 4 6 4 5 8 6 8 12 11 7 8 8 11 7 6 11 8 7 8 9 6 10 7 8 14 11 14 11 15 10 12 7 7 10 7 11 11 11 10 13 10 13
26 26 26 27 28 28 29 28 28 27 27 26 25 25 24 24 23 21 20 19 18 15 13 10 7 3 3 4 6 15 7 7 10 10 14 12 11 16 11 12 8 8 5 6 7 6 7 5 5 8 8 4 9 8 8 11 11 10 8 12 12 11 15 9 7 7 7 11 8 6 10 18 16 14 12 20 9 8 6 8 12 9 14 13 14 13 13 16
26 26 27 28 28 29 29 29 29 28 28 27 26 26 26 24 23 21 19 18 12 12 10 5 3 3 4 8 15 13 7 7 10 10 8 11 7 8 11 7 10 10 10 6 6 6 6 3 4 7 4 5 5 8 11 8 10 10 8 9 14 14 15 13 8 6 13 12 4 7 18 13 18 19 19 18 21 7 7 9 10 11 12 14 14 13 14 13
27 27 28 28 29 29 30 30 30 30 29 29 28 27 27 26 23 21 18 15 13 11 10 5 3 3 3 11 14 7 7 9 9 6 13 11 5 10 10 10 7 7 6 6 10 10 8 3 3 2 4 2 7 4 9 13 9 12 13 12 8 11 14 14 12 11 15 10 5 6 13 15 16 18 21 17 16 9 7 10 9 11 9 7 10 15 16 13
27 28 28 29 29 29 30 31 31 31 31 30 30 28 27 26 22 18 15 12 11 10 6 5 3 4 7 18 9 12 13 9 11 17 18 12 12 7 11 11 12 10 9 6 7 4 5 4 4 7 8 5 4 6 8 9 10 8 14 13 11 10 14 19 12 6 16 14 9 10 12 19 21 19 17 17 16 7 8 9 9 11 10 9 12 20 21 25
28 28 29 29 29 30 31 31 32 32 33 33 32 32 29 23 19 17 11 10 6 7 5 2 2 3 4 15 9 11 7 5 8 18 11 13 11 12 11 12 12 11 6 9 11 5 6 6 11 9 5 8 10 8 10 13 12 12 8 8 14 6 13 17 10 6 13 22 5 14 19 10 15 13 16 18 12 10 6 10 9 12 11 9 13 19 21 17
28 29 29 29 30 30 31 31 32 34 32 33 36 33 27 19 13 11 11 7 6 7 4 5 3 3 5 9 10 5 5 10 8 5 7 13 14 13 5 6 6 7 6 7 9 5 8 6 7 7 10 9 4 8 9 12 9 10 7 9 8 8 10 14 16 8 10 10 10 13 18 15 14 17 17 19 13 13 10 9 10 10 10 10 13 16 21 25
28 29 29 29 30 30 31 32 33 33 32 35 32 26 31 22 10 14 10 7 5 6 4 4 5 4 17 9 8 7 9 11 11 10 6 7 15 7 6 7 4 5 7 8 9 7 7 5 11 6 7 11 9 12 13 6 6 8 10 10 15 5 7 14 12 11 13 7 7 6 11 13 15 15 17 15 15 14 17 14 11 14 16 17 13 16 17 20
29 29 30 30 30 31 31 31 32 33 29 33 28 24 18 8 6 4 8 4 4 8 9 5 5 7 9 8 11 12 9 10 11 5 6 7 4 6 4 4 7 3 4 9 9 6 10 7 12 11 7 8 5 8 9 8 7 7 7 10 7 9 13 13 12 8 4 9 7 7 10 13 14 16 19 20 17 17 16 15 15 14 16 16 16 15 15 17
29 29 30 31 32 31 32 31 31 32 30 26 23 18 11 16 14 8 10 5 5 8 8 12 10 9 13 16 11 9 11 7 7 6 4 4 12 5 7 5 6 12 6 4 7 3 5 8 3 8 11 11 8 7 8 7 8 9 8 4 8 7 11 8 10 12 6 6 4 4 8 7 11 13 16 18 19 25 24 23 20 19 19 18 18 18 16 16
29 30 31 32 33 33 32 32 31 30 28 16 12 9 8 7 6 12 15 18 14 8 13 17 13 11 19 11 14 18 17 9 4 5 4 4 10 10 6 7 8 8 5 3 5 6 11 8 8 10 12 11 10 8 6 11 11 11 8 6 11 7 14 11 9 9 10 11 4 6 9 10 10 12 14 13 23 24 20 20 22 19 19 19 22 20 20 17
28 29 31 32 34 34 33 33 32 28 19 6 6 11 6 5 5 8 6 21 12 10 13 16 9 16 17 21 21 11 5 9 11 6 7 3 5 9 6 7 3 6 5 6 9 12 9 9 13 13 8 5 5 5 4 5 10 13 5 8 9 13 9 12 10 8 10 12 11 10 13 12 12 9 11 17 14 15 16 15 14 15 19 21 21 21 22 25
28 30 30 33 34 34 32 32 30 27 10 8 9 4 6 9 6 5 4 8 16 7 8 7 7 12 12 14 9 11 4 8 6 7 7 5 3 6 5 5 5 3 4 4 2 2 9 9 12 10 4 4 4 4 6 6 5 7 5 5 9 8 6 12 13 9 12 10 10 8 12 12 10 7 9 13 14 12 12 13 14 15 19 21 19 18 22 23
28 28 31 32 35 35 37 31 32 8 7 7 4 6 10 8 8 8 7 8 10 12 7 7 6 7 10 6 7 8 5 6 6 7 4 9 5 5 7 4 3 2 4 4 6 9 11 14 5 4 4 4 7 5 5 4 11 4 4 5 6 4 5 9 9 12 7 12 6 12 14 13 15 20 24 22 20 25 24 25 28 26 21 18 17 20 19 21
28 28 30 32 33 37 35 33 9 7 14 3 5 6 7 7 6 8 7 12 6 14 5 3 5 4 6 5 3 6 4 6 8 6 4 8 5 7 3 5 7 3 5 4 6 3 12 13 6 5 6 4 4 7 6 6 6 9 9 12 10 5 4 8 8 15 19 15 8 12 17 12 11 14 19 18 23 23 20 25 25 23 24 24 24 24 23 20
27 27 29 30 33 35 35 8 5 13 12 6 6 10 10 8 5 3 14 7 6 11 7 5 6 5 6 4 4 6 6 6 9 8 4 8 9 7 5 5 5 3 5 4 5 9 8 7 4 5 7 6 4 8 7 7 7 4 11 9 9 6 6 7 9 11 9 9 11 7 10 17 13 18 17 19 18 20 23 26 24 26 27 27 25 23 23 23
27 27 28 29 29 28 17 5 8 14 3 7 11 12 11 10 4 6 10 12 9 7 6 7 7 12 12 4 4 5 10 10 11 4 3 6 4 4 4 8 6 3 5 6 13 11 5 7 6 6 4 5 5 8 9 12 11 8 7 6 7 6 5 4 6 7 9 7 12 6 9 9 10 14 12 17 16 20 22 26 26 26 26 27 24 23 21 22
27 27 27 27 28 19 10 16 16 8 5 7 9 12 12 9 5 11 15 9 14 7 7 10 5 7 6 6 6 6 9 5 10 5 4 6 11 7 9 3 5 5 6 8 5 12 2 8 2 3 4 8 12 11 8 9 12 11 6 7 5 4 5 5 3 7 7 2 14 14 4 7 6 11 13 17 17 21 21 24 23 25 25 25 23 23 21 22
27 27 27 26 26 27 11 10 4 9 6 9 11 11 12 6 11 12 10 12 12 10 13 7 11 7 12 7 8 4 6 9 5 6 7 5 10 9 4 4 5 4 4 6 9 9 7 7 6 4 3 7 9 8 7 12 5 7 8 7 8 8 9 3 4 4 5 5 9 11 5 7 6 12 18 17 10 21 22 22 19 22 25 23 21 19 21 23
26 26 26 25 21 7 5 4 13 13 12 12 12 11 5 9 10 7 8 6 9 6 5 10 9 7 7 7 6 11 9 9 6 11 10 6 11 10 5 2 5 5 6 9 3 11 8 9 9 7 8 7 5 8 6 7 8 4 6 3 7 11 9 7 11 6 9 4 11 11 7 9 8 11 13 17 15 18 21 19 20 24 25 24 18 17 20 19
26 25 24 20 12 8 6 9 17 11 11 9 12 7 9 16 11 7 6 10 8 8 8 7 7 10 8 7 7 9 4 7 11 11 12 12 10 10 8 8 14 12 10 13 8 12 13 10 7 7 6 8 4 8 5 4 4 4 4 4 7 8 14 10 10 9 8 10 7 4 15 10 10 6 10 13 12 15 16 18 22 26 26 22 16 15 19 18
27 28 27 21 15 9 8 8 4 6 10 12 9 9 12 8 14 10 7 8 11 12 5 7 4 5 7 2 7 10 7 9 7 11 11 8 5 12 8 8 7 11 10 5 10 11 8 7 7 9 6 16 9 7 11 11 12 15 9 11 6 8 11 6 13 7 7 12 7 2 5 10 16 7 11 12 14 17 16 18 22 21 22 18 17 18 19 18
29 29 32 16 11 10 15 18 14 13 11 10 10 9 10 12 7 6 7 9 7 4 7 3 6 6 4 6 8 7 5 9 8 10 10 8 10 7 2 7 3 7 6 5 4 12 11 7 10 13 8 17 8 11 12 12 11 10 7 8 8 4 6 4 8 5 9 11 10 4 5 12 10 9 14 13 15 17 16 23 20 23 20 21 22 20 20 22
29 29 21 6 15 18 12 6 11 7 10 9 9 10 14 15 4 6 5 5 4 3 5 7 8 7 8 11 6 7 9 5 11 11 12 9 12 10 12 12 10 10 9 2 6 4 6 11 10 11 9 13 11 7 7 7 5 8 6 7 11 12 10 5 7 5 5 10 12 8 8 10 10 8 14 15 14 16 17 23 19 19 15 17 20 22 22 23
32 23 13 7 10 18 22 17 12 5 5 10 16 13 11 5 4 5 4 5 7 4 5 5 4 5 8 9 5 6 6 7 8 6 13 10 8 5 7 9 9 8 5 10 4 5 4 11 10 7 6 6 10 9 6 6 6 5 5 9 10 5 12 4 11 9 5 5 11 13 7 5 16 7 13 16 17 20 21 22 18 15 15 19 22 22 21 22
20 14 4 8 6 8 14 13 7 4 9 12 12 13 7 11 7 6 8 5 3 4 7 8 10 11 6 7 5 8 9 7 9 9 7 9 2 9 8 6 7 5 7 6 6 4 8 7 11 16 8 7 9 12 8 7 10 10 3 4 6 9 13 9 3 3 6 9 7 8 9 9 12 9 15 14 14 14 15 17 15 14 15 20 22 20 20 21
17 18 9 7 6 6 10 11 12 9 15 15 14 4 8 6 8 5 6 4 2 6 8 8 12 5 6 7 7 10 12 7 6 8 8 4 8 8 11 11 6 5 4 10 8 8 6 13 6 10 11 8 9 9 5 8 7 9 5 10 6 6 9 10 7 6 6 8 7 8 7 5 5 8 13 15 13 14 16 15 16 14 18 19 20 20 20 19
19 15 11 10 12 7 11 12 9 13 11 10 7 6 3 4 3 4 2 4 5 6 9 7 5 9 5 7 10 6 10 9 11 8 3 4 6 3 9 6 8 6 4 3 7 6 8 11 6 3 6 10 16 9 7 9 9 6 9 5 9 9 5 8 9 4 6 6 9 7 6 8 6 5 9 13 16 13 11 12 15 16 17 16 18 20 20 20
9 7 8 6 4 10 9 12 14 9 8 13 5 7 5 7 3 3 6 8 4 8 8 4 7 6 4 4 5 4 6 10 4 4 5 5 9 5 7 5 4 4 5 6 8 3 5 6 10 6 7 9 10 13 8 13 17 5 4 8 3 10 6 6 9 7 12 4 7 5 3 8 9 9 9 9 14 13 12 14 15 16 15 14 14 16 18 18
9 9 6 5 7 10 10 10 10 10 10 6 4 7 6 3 5 5 4 5 4 8 4 4 1 4 5 2 2 3 5 3 3 3 4 5 6 5 7 3 6 3 6 6 6 5 4 2 5 9 8 6 12 14 7 5 8 14 14 8 12 8 5 7 4 4 8 13 9 12 6 10 7 8 10 12 10 9 12 11 11 14 14 13 13 13 14 15
5 5 11 7 6 8 12 13 11 6 5 6 3 6 2 4 5 4 5 6 5 4 7 4 8 4 6 6 5 2 5 4 4 6 6 10 6 7 8 10 4 3 4 5 8 3 6 4 5 9 12 10 4 7 12 11 6 4 6 5 7 3 4 3 8 7 6 9 14 13 12 6 4 6 9 10 9 11 10 7 9 10 11 11 11 12 13 13
5 6 9 5 7 8 11 7 6 4 5 2 7 6 6 5 3 3 3 2 6 3 4 9 1 4 3 3 4 2 5 4 3 5 6 9 5 6 8 5 6 3 6 4 3 3 7 6 7 4 4 6 7 12 14 11 7 9 9 8 5 5 9 9 7 7 6 5 7 8 13 8 7 4 5 7 8 10 9 7 8 8 8 8 9 9 9 10
6 9 8 6 7 9 10 4 5 6 3 8 6 3 4 3 4 4 5 2 3 5 5 4 6 5 5 4 2 2 5 8 5 5 6 6 9 15 11 6 6 6 8 5 5 5 6 11 6 5 6 7 8 9 10 12 6 9 8 7 8 7 6 9 7 9 11 4 8 6 6 10 6 5 3 5 7 8 7 5 7 8 7 8 10 11 12 12
6 7 13 7 5 10 9 5 5 7 8 8 4 6 4 5 6 3 4 3 9 4 5 6 4 3 5 3 4 3 4 8 4 4 6 6 12 10 10 11 8 6 5 6 9 5 9 4 9 5 10 14 12 10 12 11 13 7 4 9 5 5 4 4 7 5 11 6 8 13 12 10 6 4 5 6 8 10 11 12 8 8 6 6 9 7 8 9
10 9 7 14 11 8 5 11 6 4 5 4 5 7 7 3 5 5 7 4 3 6 6 5 5 5 4 2 3 3 2 2 4 4 6 7 11 8 10 8 7 6 5 7 9 8 11 3 5 6 6 6 7 6 6 6 6 11 3 8 8 8 7 4 4 4 7 4 7 8 9 7 6 3 6 7 8 9 11 10 11 7 6 10 11 11 11 11
6 9 12 8 14 7 6 3 4 6 3 3 7 7 3 4 5 4 5 4 4 4 3 6 5 8 5 4 5 6 7 3 4 4 3 6 6 8 6 7 5 6 5 12 8 8 8 6 5 9 12 12 10 9 7 3 7 8 9 5 10 5 5 7 9 8 10 7 8 8 9 13 6 6 5 7 6 6 9 11 10 8 7 9 9 10 10 10
6 6 5 6 13 7 5 7 5 6 6 6 6 4 2 4 6 4 4 6 3 6 4 3 4 6 4 7 3 3 2 3 5 4 3 4 6 9 10 9 8 7 15 13 8 11 8 10 6 9 6 7 7 4 3 4 2 3 4 7 8 7 6 9 6 8 5 15 6 6 9 13 8 5 5 5 7 6 6 6 7 5 7 6 6 8 9 10
6 6 5 7 8 8 6 9 5 7 4 3 7 2 4 4 2 5 5 3 3 3 7 6 7 3 11 9 7 6 3 3 4 3 5 3 6 9 11 6 7 8 9 4 5 9 10 7 3 6 2 2 4 6 6 2 3 2 2 3 5 6 9 8 4 4 5 6 12 6 7 8 8 9 8 7 5 5 5 5 5 4 4 6 8 9 9 11
5 7 6 4 7 7 8 7 5 4 8 6 6 3 3 4 6 7 7 3 5 3 6 5 5 8 8 7 8 6 4 4 6 4 6 5 2 6 7 8 4 9 6 4 6 6 13 3 2 3 4 4 6 3 4 6 4 3 5 4 5 6 5 6 4 3 8 6 6 12 8 8 8 8 9 7 6 6 3 3 5 7 5 5 6 6 7 10
7 4 6 9 4 5 5 4 4 4 4 6 6 6 7 6 4 2 3 5 4 3 4 10 3 3 6 6 7 8 10 11 10 8 5 3 11 3 4 6 3 4 4 3 7 2 10 6 8 4 4 4 6 6 5 4 4 6 5 5 4 4 5 3 4 5 9 8 4 5 5 3 8 7 5 3 1 3 5 8 5 5 4 4 3 5 7 8
6 5 5 5 7 8 5 3 5 3 4 8 4 7 3 4 3 6 2 4 5 8 7 9 10 3 3 4 4 8 9 11 10 10 10 8 6 9 7 10 4 8 5 4 3 3 8 5 4 4 4 8 7 7 8 6 5 6 11 9 6 3 4 3 7 5 6 7 4 4 4 5 8 3 2 2 4 5 7 6 6 6 5 4 4 5 7 8
5 4 5 9 6 6 3 4 5 6 6 9 8 5 7 7 4 7 6 5 5 6 13 13 9 10 2 3 9 12 12 11 14 14 13 12 9 8 6 11 7 6 5 5 2 8 7 12 8 4 2 5 9 10 5 6 9 10 10 10 9 4 2 2 3 3 4 9 9 8 10 9 8 5 6 4 5 5 5 7 6 7 7 5 5 5 6 8
Wind_Speed
19 19 19 19 19 19 19 18 18 17 16 16 15 15 15 15 16 16 16 16 17 17 17 16 15 14 14 14 13 13 14 2 1 0 2 6 6 5 6 4 5 3 3 1 3 5 2 4 5 4 3 2 1 2 1 1 1 2 2 3 1 3 3 3 4 4 2 0 2 1 1 2 4 4 4 3 4 1 4 3 3 2 2 2 4 4 12 15
19 19 19 19 19 19 19 19 18 17 17 16 15 15 15 15 16 16 16 16 17 17 17 16 15 14 14 12 12 12 8 1 2 1 6 2 1 7 5 3 5 3 3 3 3 3 3 4 1 3 3 1 2 0 0 1 1 2 1 2 5 3 4 3 1 3 1 5 4 3 1 2 3 0 3 4 6 6 7 6 3 4 2 7 5 11 13 14
19 19 19 19 20 20 20 19 19 18 17 16 16 16 15 15 16 16 16 17 17 17 17 16 15 15 14 11 10 9 5 2 0 1 1 1 6 7 5 4 6 3 1 1 1 2 1 1 1 2 3 3 3 2 1 1 2 2 4 1 3 6 3 4 4 6 4 6 7 5 3 1 4 1 1 1 4 6 6 5 6 6 6 4 2 7 11 13
19 19 19 19 19 20 20 19 19 18 17 17 16 15 15 15 16 16 16 17 17 17 17 16 16 14 14 13 10 5 0 1 1 2 2 4 5 8 6 6 7 4 3 1 3 1 2 4 3 4 2 4 2 1 2 1 2 2 2 3 3 5 2 4 5 7 8 5 3 0 1 4 5 3 0 1 2 4 5 3 3 7 9 3 2 7 9 9
19 19 20 20 20 20 20 20 19 18 18 17 16 16 15 16 15 16 16 17 17 17 16 16 15 14 13 11 10 1 2 3 2 2 3 4 6 7 6 7 6 2 2 3 3 3 4 3 2 3 3 1 1 1 0 1 2 3 5 5 7 2 1 6 7 8 4 2 0 1 3 4 2 2 2 2 2 4 2 5 6 6 5 9 8 8 9 12
19 19 20 20 20 20 20 20 19 19 19 18 17 16 16 16 16 16 17 17 17 16 15 15 15 13 11 9 1 1 2 2 2 2 3 6 6 6 7 8 5 3 2 3 2 2 4 3 4 2 2 3 1 3 1 1 0 3 2 1 2 2 1 2 1 3 4 1 1 0 2 0 0 3 2 4 5 4 5 3 6 5 2 6 5 9 9 12
20 20 20 20 20 20 20 21 19 19 19 18 17 16 16 16 16 17 17 17 16 16 15 14 14 15 14 7 1 3 3 1 1 6 4 5 5 6 8 7 6 2 3 3 4 3 3 4 6 1 2 3 1 1 2 3 1 3 0 1 5 2 4 7 5 7 4 3 6 2 1 1 1 1 1 2 6 8 8 3 1 4 7 8 8 6 9 11
19 19 19 20 20 20 20 20 20 19 19 19 18 17 17 16 17 17 17 17 16 15 14 13 14 13 11 3 1 3 2 1 4 4 6 5 6 6 8 4 2 2 3 1 1 2 1 7 3 1 5 3 1 0 2 3 3 3 1 1 3 0 4 4 5 5 5 6 5 2 1 6 6 3 0 4 7 6 4 2 3 5 7 6 7 7 8 8
19 19 19 19 20 20 20 20 20 20 19 19 18 18 17 17 17 17 17 16 15 14 13 12 13 11 2 1 2 2 1 2 4 2 4 5 5 6 3 1 0 2 1 1 0 0 2 1 2 1 0 1 1 1 3 1 1 1 1 1 3 4 4 4 4 3 2 3 2 3 5 5 8 2 2 6 7 7 2 1 3 6 7 7 9 8 9 9
20 19 19 19 20 20 21 21 21 20 20 19 19 18 17 17 17 17 17 16 15 14 12 11 11 11 3 2 3 6 2 5 1 2 4 7 6 4 5 4 4 3 1 0 2 1 2 1 2 2 6 2 1 1 1 2 1 1 2 3 3 7 5 3 2 4 1 1 2 2 1 3 2 3 3 2 7 5 6 2 1 6 7 7 7 6 8 9
20 20 20 20 20 21 21 22 21 21 20 20 20 18 18 18 17 17 17 16 15 13 11 10 8 7 2 2 3 1 3 3 1 2 5 6 5 4 2 2 1 1 1 2 2 1 1 1 1 2 1 1 1 1 0 1 0 2 2 2 1 7 0 3 1 1 2 2 5 5 3 1 2 1 3 5 5 3 3 7 2 1 4 7 7 7 7 7
20 20 20 20 21 22 22 22 22 22 21 20 20 20 19 19 18 17 16 15 14 12 9 8 6 0 1 2 2 1 0 2 1 2 2 4 1 5 5 5 3 3 2 2 4 1 2 2 2 2 1 0 1 1 0 2 0 1 0 2 4 7 3 4 3 1 2 2 4 3 1 4 1 3 5 8 3 2 3 4 9 6 2 2 5 6 7 8
20 21 21 22 22 22 22 23 23 22 21 21 21 21 21 19 18 17 15 14 9 7 6 4 2 1 1 3 4 8 1 1 2 5 2 0 1 2 2 2 4 4 1 0 3 1 2 1 2 3 1 2 1 0 1 3 2 1 3 1 4 8 2 1 4 1 1 1 1 2 4 6 8 8 7 6 5 3 3 6 6 7 4 1 3 5 5 6
21 20 21 22 22 23 23 23 24 24 23 23 22 21 21 20 17 16 14 12 10 8 6 2 1 0 1 2 5 3 1 2 4 3 2 1 1 5 6 1 3 3 2 3 2 2 1 0 2 1 1 0 1 1 3 5 5 0 1 6 2 3 2 9 2 7 5 1 0 1 1 7 8 9 5 4 4 2 4 6 6 6 6 2 3 4 6 8
21 21 21 22 23 23 24 24 24 25 25 24 24 22 22 20 16 12 11 8 7 5 3 3 1 1 2 4 5 7 3 2 2 3 5 4 3 4 6 4 3 1 3 2 1 0 2 2 2 3 1 0 1 3 3 3 5 3 3 1 3 5 5 9 3 2 4 3 5 5 0 5 6 6 6 8 7 2 5 6 6 5 6 1 2 3 5 5
22 22 22 22 23 24 24 24 25 25 26 26 24 24 20 15 10 6 3 4 2 4 2 1 0 1 1 2 1 2 3 1 4 2 4 4 5 5 3 2 3 2 2 0 1 0 3 3 5 1 1 2 5 4 6 4 4 5 4 1 1 1 2 4 3 2 2 2 3 3 2 3 3 3 2 5 4 3 4 5 6 7 6 4 3 3 3 2
22 22 23 22 22 23 24 24 25 27 26 25 27 21 15 8 3 0 2 2 2 3 0 0 0 0 1 3 1 1 1 2 2 2 1 2 6 4 1 3 2 3 3 2 4 3 4 2 2 1 5 5 1 3 1 6 4 4 2 1 1 2 3 1 9 1 4 4 1 5 1 2 4 7 10 10 9 6 8 6 7 7 7 6 4 3 3 3
23 23 23 23 23 24 25 24 26 27 26 25 22 16 11 8 6 12 7 4 2 1 1 1 1 2 4 4 0 2 1 6 5 2 3 2 5 1 0 1 1 2 4 1 4 3 3 0 4 2 3 4 4 6 6 1 1 2 3 3 2 1 1 3 2 4 7 3 4 4 3 5 7 9 11 9 8 9 11 8 7 9 10 11 8 6 4 4
23 23 23 22 23 23 24 25 25 26 22 23 16 9 3 3 1 0 4 0 0 2 1 1 1 1 3 2 4 6 3 6 5 1 1 3 1 2 2 2 3 1 0 3 2 1 4 2 4 3 0 3 1 4 4 3 4 2 2 1 1 1 2 3 4 4 1 5 4 5 4 6 9 11 12 12 9 11 10 10 10 10 10 10 10 9 6 5
23 22 24 23 24 23 24 24 24 24 23 15 7 4 2 5 5 1 4 1 1 3 2 3 1 2 5 6 4 4 4 6 1 2 1 1 6 3 1 1 2 6 2 0 3 2 1 3 1 4 6 6 5 5 3 4 5 1 2 1 2 2 5 4 4 6 3 1 2 2 4 5 6 7 9 10 10 16 15 14 12 12 11 11 11 11 10 8
23 24 23 24 24 24 24 24 24 23 19 6 5 3 2 1 2 3 6 7 3 2 3 4 5 4 5 1 1 3 5 3 2 2 1 1 4 6 2 2 4 1 1 1 0 2 3 4 3 4 6 5 5 3 2 2 1 2 1 1 4 3 3 3 0 3 5 1 2 2 6 6 4 4 8 8 15 15 13 13 14 13 13 11 14 13 13 11
22 22 24 24 25 25 25 24 24 21 12 1 1 4 1 1 0 3 1 5 5 3 4 5 1 3 4 6 3 4 4 1 5 1 3 0 1 2 3 4 1 1 2 1 2 5 3 1 5 4 2 1 0 1 2 3 3 1 1 1 1 4 5 7 2 2 3 2 1 1 7 3 5 4 5 11 9 7 8 10 8 10 13 13 13 14 14 15
22 23 23 25 25 24 23 22 22 15 4 4 4 2 1 5 1 3 1 0 5 2 1 0 2 3 4 4 1 6 2 1 2 3 1 1 1 1 2 1 2 1 0 2 0 0 3 4 4 2 3 3 1 2 3 2 2 3 2 1 3 2 1 3 2 2 5 1 1 1 6 1 5 2 6 8 6 5 7 8 8 9 12 13 12 11 13 13
21 22 23 24 26 25 25 23 17 3 3 1 0 2 1 3 3 2 1 1 3 7 2 3 2 1 3 1 2 3 1 1 2 2 2 2 2 1 2 2 2 0 1 0 3 3 4 6 1 2 2 1 1 1 2 1 3 1 2 2 1 1 2 5 3 2 2 2 3 4 4 2 6 6 7 5 3 6 10 11 12 12 11 10 9 10 11 13
22 22 22 25 25 27 25 19 4 3 4 1 2 3 2 3 2 0 2 2 1 3 3 1 2 1 2 0 2 1 0 1 4 2 2 3 2 1 0 1 2 2 2 1 4 1 6 4 1 2 2 2 0 3 1 3 1 5 5 6 6 2 3 3 2 2 4 1 1 1 1 1 3 2 3 6 5 9 7 11 13 13 14 14 15 14 13 12
21 21 22 23 25 26 23 2 2 4 5 1 0 5 4 4 2 1 5 3 1 3 3 1 0 0 0 1 2 2 3 1 2 2 1 1 5 1 0 0 1 0 1 2 2 1 2 1 1 0 2 2 1 1 3 3 2 2 4 5 6 4 2 2 0 1 1 0 1 1 3 2 3 5 8 8 4 7 8 12 12 11 13 13 12 14 14 14
21 21 21 21 21 22 6 0 3 5 1 1 3 6 6 5 1 2 1 4 3 2 0 2 1 1 0 1 1 2 1 2 4 1 1 2 0 1 2 3 1 1 1 1 4 1 0 2 3 4 2 2 2 2 1 6 6 2 2 3 4 4 3 2 2 2 2 1 2 3 2 3 1 2 4 7 2 7 12 14 13 10 13 13 12 13 14 13
22 21 21 21 19 14 4 4 7 1 1 1 5 6 6 5 0 3 3 2 1 2 1 3 0 1 1 2 4 1 2 2 2 1 1 3 1 2 4 1 3 2 0 2 2 4 1 2 1 2 2 1 2 3 2 5 5 2 2 5 2 2 2 4 1 2 0 0 6 2 1 1 1 3 4 7 8 11 11 11 11 11 12 11 13 12 13 13
21 21 20 20 20 12 1 3 1 3 1 5 6 6 5 2 4 5 3 1 1 0 4 1 3 1 6 3 4 2 1 3 1 2 4 1 6 1 1 1 2 3 3 2 4 2 1 4 1 3 1 3 4 2 4 7 1 3 2 5 5 5 5 2 2 2 1 2 3 1 2 1 1 5 8 7 5 10 9 9 9 10 11 13 11 12 11 11
19 18 18 18 12 1 0 1 6 5 6 6 7 5 2 2 2 1 2 0 1 1 0 2 2 3 3 3 2 7 5 3 0 4 4 2 7 6 2 1 2 2 1 5 1 5 3 5 4 3 1 2 2 1 3 5 3 3 4 1 3 7 3 3 6 2 3 0 3 4 4 3 1 2 4 7 6 8 9 6 9 12 12 13 11 10 11 11
19 17 17 16 4 3 0 4 7 3 6 5 5 2 2 7 2 3 0 2 1 2 1 2 1 5 4 4 3 4 2 3 6 4 3 6 5 5 3 0 5 4 4 7 1 6 6 3 2 2 2 2 0 1 2 1 1 2 1 2 1 1 7 3 4 4 2 2 2 1 3 2 3 1 2 6 7 8 7 9 10 11 13 11 9 9 10 10
21 21 18 10 6 2 3 1 1 2 4 5 3 4 4 1 5 2 2 3 0 2 1 2 1 1 3 1 4 4 2 4 2 4 3 2 2 4 3 3 1 3 3 2 4 5 2 3 2 6 3 6 2 2 3 2 4 6 5 5 2 2 3 1 4 1 1 4 0 1 2 2 3 2 6 7 7 7 7 6 6 9 12 10 10 10 8 9
22 21 24 8 6 5 8 5 3 4 5 2 4 3 2 4 0 2 2 2 0 0 1 1 1 3 1 3 3 3 2 2 3 2 0 1 3 1 1 2 2 1 1 1 1 6 3 2 5 6 4 4 3 1 3 1 4 4 2 4 4 1 2 1 3 1 4 2 2 2 2 3 1 3 7 6 7 6 7 7 7 9 10 8 7 8 8 9
23 20 10 3 7 8 3 1 1 4 4 4 3 4 5 4 1 3 1 1 1 1 3 2 3 3 5 2 1 1 3 0 3 3 2 0 4 2 4 4 2 3 3 1 2 1 2 2 2 3 1 4 2 2 1 1 1 1 2 2 3 5 3 1 2 1 2 2 3 4 1 1 2 2 6 7 7 6 6 6 5 7 7 7 4 8 9 9
25 15 5 2 4 8 11 6 3 2 1 4 8 4 3 1 1 1 1 1 2 1 1 2 1 2 3 3 3 2 1 1 2 2 6 3 1 0 1 3 3 4 2 2 1 1 2 4 5 3 3 2 2 2 1 2 1 0 2 3 5 1 5 1 2 2 1 1 5 5 1 2 2 3 5 5 8 6 6 6 5 7 6 5 7 8 8 8
14 6 0 2 2 3 5 5 4 2 1 5 5 4 2 3 0 2 1 1 0 0 2 2 5 4 1 3 1 2 5 0 4 2 2 2 0 0 1 2 0 0 1 1 2 0 2 1 2 6 1 2 3 3 1 1 1 2 1 0 1 3 7 4 1 1 2 4 0 1 2 1 1 2 6 8 8 7 5 8 7 7 5 3 6 6 7 7
7 8 3 4 3 1 4 6 5 3 7 6 5 1 1 2 4 3 2 0 0 3 3 0 2 1 1 1 2 4 3 2 1 2 1 0 1 2 1 3 4 0 1 2 2 1 1 5 3 3 3 1 3 2 2 3 2 3 1 2 1 2 3 4 1 1 2 1 1 1 1 2 1 2 2 3 3 1 5 5 5 7 6 5 5 4 4 5
7 4 4 5 3 3 4 6 3 6 4 4 2 2 1 1 1 1 1 3 0 3 3 2 1 3 1 0 2 2 4 2 5 2 0 1 0 1 0 1 2 1 0 0 1 2 2 3 1 1 2 6 5 2 0 1 3 1 3 3 1 2 0 3 3 0 0 1 1 2 1 1 2 1 1 1 0 3 5 3 4 4 5 6 7 6 5 4
3 2 2 1 2 6 3 3 4 4 2 5 0 1 2 2 1 0 4 5 1 3 1 1 1 0 1 0 1 1 2 1 0 1 1 1 2 1 1 3 1 3 2 4 2 0 2 0 3 1 2 3 3 3 3 6 7 3 1 3 0 2 2 1 2 2 4 1 1 2 0 2 2 2 3 2 5 3 3 3 3 3 4 5 5 6 7 7
4 2 1 2 3 1 2 1 3 4 4 3 2 2 1 0 1 1 0 1 1 2 1 1 0 0 0 2 1 0 2 2 1 0 1 1 1 2 2 2 1 1 4 2 3 0 1 0 1 3 4 1 1 3 1 1 2 6 6 3 3 2 1 2 1 0 1 4 3 3 1 4 1 4 6 4 2 2 2 2 2 2 3 3 4 4 6 7
2 1 2 3 4 2 2 4 4 2 2 1 1 1 0 0 0 0 1 3 1 1 2 2 4 0 2 1 1 0 0 1 1 0 1 1 1 1 2 3 1 1 1 2 4 0 2 1 1 3 5 3 1 3 2 3 2 0 1 2 2 0 0 1 2 2 2 3 2 4 3 2 0 2 4 2 0 2 3 2 0 1 0 1 2 3 3 4
1 1 2 2 4 2 2 2 1 0 1 1 0 2 0 2 1 1 1 1 3 1 2 4 0 1 1 1 1 1 1 0 0 1 1 1 1 1 3 2 3 0 1 0 1 2 2 2 3 1 2 2 2 2 4 2 1 1 4 1 2 2 3 2 1 1 1 1 2 2 3 3 1 0 2 2 1 2 0 0 0 0 0 1 2 2 3 3
1 2 3 3 3 3 3 1 2 2 1 2 3 2 1 0 2 1 2 0 0 1 1 1 2 1 2 1 0 0 2 0 2 1 1 1 3 7 5 5 4 3 3 1 2 1 2 2 2 2 3 3 4 3 3 4 2 1 1 1 2 1 0 2 1 3 3 0 1 1 0 3 3 1 1 0 0 1 0 0 1 1 2 2 2 3 3 4
1 2 3 1 3 3 2 1 1 2 4 5 1 3 2 1 2 1 0 1 2 0 1 1 1 2 0 1 1 1 2 0 1 1 1 1 2 6 5 6 3 1 1 2 2 1 0 1 3 1 3 6 6 3 2 2 4 3 1 2 1 1 0 2 2 1 1 3 4 5 2 3 2 0 1 1 2 2 2 1 1 1 1 2 2 2 3 4
2 2 2 6 5 3 1 3 2 1 2 1 2 3 2 0 2 2 3 2 0 2 2 1 1 2 1 0 1 0 0 0 1 1 0 1 3 3 6 2 5 1 2 3 3 4 4 0 1 1 1 2 2 2 2 3 2 3 0 3 2 3 1 0 1 0 1 0 3 3 2 3 0 0 1 1 1 2 1 0 0 0 0 1 2 2 3 4
1 1 3 2 5 3 3 1 1 2 1 1 2 2 0 1 1 1 3 0 2 2 1 2 1 3 2 1 1 1 0 0 0 1 1 1 2 2 2 5 3 1 1 8 3 3 2 1 2 4 4 5 3 3 3 0 1 3 4 2 4 1 1 2 3 2 2 2 2 4 4 5 3 3 2 1 1 1 1 0 1 0 0 2 1 2 2 2
0 0 0 1 3 3 1 3 1 1 2 1 0 1 1 2 1 1 2 1 0 1 1 1 0 1 1 2 1 0 0 1 2 0 2 1 2 3 6 3 4 1 10 5 3 4 2 3 2 2 2 4 3 0 1 2 0 2 1 3 3 3 1 1 2 2 2 4 3 1 4 7 5 3 3 2 2 2 2 2 1 0 0 1 2 2 3 4
0 2 1 1 2 1 1 3 2 0 1 0 2 0 1 0 0 1 1 1 2 1 2 1 1 0 4 5 3 1 1 1 1 0 1 1 1 4 2 4 3 4 3 1 2 2 3 1 2 1 1 2 2 3 2 1 1 1 1 1 2 3 2 1 2 2 3 1 4 3 5 5 5 6 6 5 3 3 3 3 3 2 2 2 2 3 3 4
1 2 2 1 1 3 2 1 1 2 2 3 1 0 1 1 3 3 1 0 2 0 2 1 3 3 2 2 2 1 1 0 2 1 2 1 0 2 2 2 1 4 4 2 2 1 4 1 0 0 1 2 2 0 0 1 0 0 2 1 1 0 1 0 1 1 3 1 3 7 5 5 4 4 6 4 4 4 2 1 1 0 1 2 1 1 2 2
1 1 1 2 2 0 1 0 1 1 1 1 2 3 3 2 2 1 1 2 0 0 1 1 2 2 4 4 3 2 6 7 3 2 2 2 0 0 0 2 1 2 2 0 0 0 2 1 1 1 1 2 3 3 1 1 1 3 3 1 1 1 0 0 0 0 3 5 2 3 3 1 3 3 2 1 1 0 0 1 3 3 3 3 2 2 2 3
1 1 0 1 0 1 0 1 0 0 0 1 1 2 1 2 2 2 0 1 2 3 3 5 5 2 1 3 1 5 6 7 6 6 5 5 0 4 2 2 1 1 2 0 1 1 2 0 1 1 2 3 3 4 6 3 2 2 4 3 4 1 0 1 1 2 1 2 2 2 2 2 2 1 0 1 3 3 4 4 4 4 4 3 3 3 3 3
1 1 1 1 1 2 1 1 1 2 2 4 3 2 2 2 3 3 1 2 4 2 5 5 5 5 0 1 6 8 8 6 9 9 7 6 1 2 1 2 4 1 0 0 0 0 1 4 2 1 0 2 5 3 3 4 4 3 2 4 3 1 1 0 2 1 2 5 5 4 5 4 4 3 4 1 3 4 4 4 4 4 4 3 3 4 4 4
Wind_Direction
357 356 356 355 354 353 352 350 347 346 343 343 338 335 335 334 332 330 326 327 327 330 330 329 332 331 328 328 330 335 333 2 346 15 5 239 200 164 138 115 90 106 48 55 21 54 343 8 29 351 72 73 310 85 236 70 116 64 146 114 209 200 143 212 183 188 182 255 274 312 3 17 324 327 287 330 332 285 293 304 298 324 38 292 276 113 129 138
356 356 354 354 354 353 351 350 348 345 345 341 338 336 333 332 331 328 324 324 328 329 329 330 332 330 327 328 329 336 334 341 302 310 238 240 136 127 126 125 100 62 87 41 76 92 51 354 353 50 106 71 324 69 70 204 80 104 97 96 216 190 236 166 217 240 305 275 254 270 267 192 243 6 288 344 311 330 335 318 334 314 315 5 48 121 127 140
354 355 355 353 352 351 350 349 348 346 344 341 338 336 332 331 330 326 323 324 326 329 329 329 333 330 326 327 332 331 358 331 14 352 310 28 162 123 133 116 101 85 125 155 228 135 113 233 215 86 15 93 352 128 69 331 138 219 113 192 253 207 235 223 227 245 225 241 276 295 299 137 268 219 293 298 280 321 316 306 331 337 321 17 18 126 139 148
352 353 353 352 351 350 350 348 348 346 343 341 338 335 331 330 328 323 322 323 326 328 329 329 330 328 328 325 328 331 50 43 54 261 277 242 129 131 136 114 106 99 90 75 165 120 108 78 71 97 66 67 310 40 88 263 107 274 98 180 226 208 180 261 218 239 251 246 265 239 339 335 284 243 16 240 332 311 287 231 227 281 299 152 126 125 133 136
351 351 351 351 351 350 349 348 346 345 343 340 338 334 332 330 325 321 321 323 325 327 327 328 330 326 326 326 329 339 42 54 284 235 249 166 130 135 131 117 102 96 121 148 91 52 79 99 99 41 84 103 18 29 48 307 162 115 200 194 200 153 193 246 227 238 239 350 111 310 339 263 293 309 210 169 234 250 244 299 286 264 256 158 152 148 140 145
350 350 350 350 350 349 348 347 345 343 342 339 338 334 331 328 323 320 320 322 323 326 325 328 328 328 326 327 35 86 87 81 257 279 209 173 144 138 120 108 109 81 69 46 75 27 55 9 67 30 18 68 18 97 278 214 55 197 324 299 254 237 264 269 275 221 162 257 196 88 227 318 358 270 246 195 207 240 226 254 282 277 169 148 141 143 149 155
348 348 349 349 348 347 347 346 344 342 340 338 337 332 331 327 324 318 319 321 321 324 325 325 327 328 330 324 148 69 95 264 315 255 202 161 164 112 98 90 72 48 44 34 14 61 44 53 72 75 89 67 355 112 310 345 359 112 226 320 307 177 215 246 256 291 288 237 258 216 80 220 248 273 188 228 246 239 272 283 278 98 113 129 141 163 159 162
346 347 347 347 347 346 345 344 342 340 338 336 334 331 329 325 322 317 317 319 319 320 322 324 325 327 351 22 25 355 38 349 268 271 193 157 83 72 97 75 96 52 44 50 36 29 83 52 78 137 58 104 201 111 345 63 21 111 304 274 268 182 239 267 260 272 267 253 243 147 169 237 184 211 37 253 263 286 297 313 119 113 117 124 138 151 150 149
346 346 346 345 344 345 344 343 341 339 336 334 332 329 327 323 320 317 314 316 316 316 317 322 324 329 346 73 103 45 335 238 230 258 175 117 76 55 90 18 42 101 141 50 41 153 94 297 68 139 213 83 215 34 336 98 328 181 244 266 283 286 287 266 263 249 259 265 154 140 220 269 241 277 235 241 263 250 272 144 138 127 135 151 157 156 159 157
345 345 345 344 343 343 342 341 339 337 333 331 329 326 322 321 316 315 312 311 312 312 312 317 327 323 357 59 35 72 266 231 285 157 115 100 70 45 54 137 107 111 56 315 39 82 62 191 124 194 126 87 138 4 123 93 236 176 262 231 267 278 326 346 55 331 271 220 132 192 242 236 260 134 277 283 247 275 339 328 116 140 162 167 160 156 163 159
343 344 343 343 342 341 341 340 338 335 332 329 327 323 319 316 314 309 309 307 308 307 307 315 327 347 14 72 87 67 260 49 1 96 116 103 61 6 307 68 172 75 112 351 316 198 319 62 148 70 42 221 99 300 102 221 334 302 215 324 341 329 280 299 350 340 7 320 172 174 249 190 277 98 226 245 275 3 318 295 301 204 181 177 170 166 167 158
341 343 343 342 341 340 339 339 337 334 330 327 324 320 316 313 309 306 304 304 301 299 302 305 327 42 55 70 133 198 14 139 117 112 112 123 170 206 184 147 162 163 132 317 292 225 171 145 102 60 301 234 333 335 4 233 9 262 151 352 311 352 59 3 23 317 35 289 175 194 341 314 350 208 236 247 330 34 342 319 310 301 258 214 189 167 166 170
341 342 342 341 339 338 338 337 336 332 329 326 322 318 313 309 304 301 300 301 294 300 309 329 339 89 76 17 234 235 278 132 119 108 78 50 340 258 225 175 165 163 188 189 265 62 156 137 88 31 195 103 236 54 228 54 314 81 45 94 360 3 29 295 334 320 345 260 194 167 296 276 278 244 267 309 317 350 332 312 277 279 291 187 221 185 168 158
341 340 341 339 337 337 336 336 335 332 329 325 321 316 312 306 300 296 291 279 286 288 291 304 77 47 87 236 275 252 243 153 107 103 188 106 123 283 333 223 158 181 182 223 276 223 235 214 121 147 133 160 284 276 29 335 13 135 293 63 77 32 303 306 16 307 49 318 274 135 171 284 278 302 336 291 298 256 244 250 266 275 283 269 201 206 192 188
341 341 340 338 337 335 335 335 334 331 328 325 320 317 311 305 300 287 279 279 275 258 234 75 48 71 29 280 264 290 241 86 125 239 177 131 174 322 286 310 318 154 193 174 206 189 126 135 71 41 297 9 41 32 345 13 4 19 74 302 325 81 298 301 309 39 59 319 20 82 39 241 280 306 5 328 305 295 235 254 270 277 288 1 288 226 218 222
341 340 339 337 336 335 334 335 333 330 329 326 322 318 312 306 298 294 275 228 272 136 116 4 307 99 92 352 134 54 44 27 323 270 221 146 152 206 241 1 288 356 129 272 254 267 28 76 70 184 303 18 47 88 33 31 341 358 86 233 43 47 300 348 325 76 291 258 345 80 254 331 316 358 323 311 333 254 236 284 290 286 283 283 220 225 232 195
341 339 339 338 336 334 334 334 334 331 329 326 324 317 316 309 277 327 113 139 112 107 87 111 314 183 66 238 280 30 333 276 265 3 5 208 170 188 36 3 358 333 11 72 27 86 351 65 306 32 40 94 116 88 59 21 340 322 12 80 265 62 347 15 306 16 18 53 7 6 104 241 268 332 335 357 5 5 32 339 311 307 307 295 300 267 222 212
340 339 339 337 336 334 332 333 333 332 329 326 324 307 308 323 147 108 64 55 100 129 262 217 105 38 306 351 354 288 272 284 316 262 196 266 170 122 99 13 348 48 33 27 1 56 335 62 30 175 4 7 31 43 90 225 191 275 340 15 332 343 276 271 18 296 17 19 64 347 52 323 333 355 359 359 2 36 39 20 1 347 335 326 321 307 285 224
339 338 337 337 335 334 332 331 333 331 329 327 313 308 314 94 138 85 101 139 53 356 27 326 25 73 185 226 301 300 276 232 296 43 283 108 124 96 59 86 60 256 6 61 282 55 357 60 30 41 281 318 312 138 151 212 158 193 188 204 185 355 300 308 249 281 34 356 23 29 7 338 350 5 359 3 4 36 30 25 16 4 354 347 338 327 321 295
338 336 337 336 335 333 332 332 331 329 335 336 3 7 18 17 3 331 335 52 172 193 227 232 153 268 295 290 280 256 271 26 340 327 43 211 111 123 51 85 7 54 76 119 303 56 113 86 240 233 236 228 246 185 174 187 159 107 113 135 208 204 283 278 284 261 291 65 22 17 35 25 1 12 1 357 11 29 19 15 10 4 359 355 348 339 328 313
337 336 336 335 334 334 331 332 328 327 332 328 313 55 56 356 43 318 322 287 254 270 239 244 197 200 232 291 274 14 20 321 62 287 271 99 88 127 273 25 22 38 330 289 206 309 66 46 293 223 228 212 229 186 107 90 121 171 132 148 295 176 255 239 256 326 308 122 356 41 74 13 343 354 13 10 33 25 13 9 7 0 359 357 355 344 341 321
338 335 335 335 333 333 330 329 326 326 328 242 7 83 143 131 139 237 70 326 322 251 238 268 355 285 315 260 222 134 104 346 337 321 303 92 344 106 301 91 104 193 328 343 19 21 24 209 255 239 219 179 92 141 162 165 156 108 201 195 341 274 231 288 273 293 309 72 13 21 78 354 345 333 21 42 43 29 18 14 2 358 5 0 356 350 344 347
337 336 334 335 334 331 331 324 326 325 335 33 41 76 41 304 343 261 147 157 275 275 255 339 236 263 296 280 271 106 91 195 284 296 240 100 351 65 165 72 47 16 23 47 169 55 7 294 252 251 111 108 60 86 105 54 63 140 80 75 226 238 27 302 290 352 358 74 155 156 94 342 347 351 76 47 48 32 12 9 9 13 10 5 359 352 347 346
335 336 335 334 332 333 325 326 314 346 30 13 268 91 290 324 322 36 80 237 297 311 209 225 166 183 261 32 208 125 138 278 113 298 283 99 116 204 77 139 91 55 275 113 137 150 208 245 209 97 106 154 238 48 107 65 291 320 155 147 247 242 241 173 253 2 322 5 70 83 47 340 10 3 2 31 16 36 14 2 10 13 11 353 351 1 2 355
334 335 336 333 334 332 324 318 38 347 301 281 241 246 307 333 6 135 99 344 16 295 240 294 159 255 240 268 14 284 253 358 222 236 276 104 103 56 218 173 110 238 185 149 102 73 298 269 133 79 50 61 105 342 207 143 345 321 234 191 202 186 203 267 338 33 25 358 328 110 13 307 305 331 21 349 5 25 7 13 2 0 5 1 359 355 355 359
332 334 336 336 335 335 316 349 338 348 342 84 31 330 343 340 38 134 96 78 1 271 354 297 184 14 104 293 28 108 65 330 220 245 57 225 152 153 68 29 114 319 173 162 185 194 209 352 66 4 109 74 60 238 243 135 157 68 276 196 204 188 149 121 62 71 359 178 290 55 142 258 328 8 2 349 3 22 3 13 359 358 5 3 354 356 352 355
330 331 335 336 337 340 7 334 319 293 28 315 324 331 342 319 346 109 39 6 44 267 129 244 53 274 290 284 89 52 57 263 305 33 54 325 86 344 117 272 351 321 136 155 41 297 348 313 34 32 61 65 40 8 264 135 108 234 258 133 115 117 136 184 112 133 209 275 303 37 109 173 255 313 354 336 349 26 19 4 356 355 6 359 357 354 355 357
329 329 332 334 335 336 219 314 345 36 252 319 314 327 327 307 125 45 81 71 296 300 36 310 196 340 68 315 48 152 205 261 28 293 61 304 116 358 73 204 158 191 356 69 235 255 119 327 67 27 54 44 280 216 192 159 137 212 201 143 129 151 187 153 111 142 355 4 285 331 337 57 277 280 336 4 26 8 18 359 348 353 357 355 358 354 355 354
325 326 329 332 331 326 222 191 10 245 266 310 313 317 318 43 92 101 112 104 256 48 221 81 254 53 330 351 33 5 344 15 130 283 319 40 44 177 81 237 147 139 36 113 187 292 308 193 220 135 137 270 241 258 175 168 184 274 135 71 73 72 63 86 107 110 339 71 276 279 355 180 281 330 357 9 38 9 360 345 340 341 353 357 354 346 352 352
319 320 326 331 331 150 327 239 229 252 311 299 303 309 25 52 33 43 21 194 28 309 330 258 27 294 35 47 333 0 38 337 77 312 28 80 344 32 47 113 121 85 169 356 134 213 270 297 194 102 184 219 213 289 150 211 208 117 109 81 4 39 31 25 56 91 64 23 255 256 297 159 292 322 11 23 13 348 341 337 341 344 354 356 354 4 16 2
317 316 321 329 296 258 247 303 252 240 266 289 297 18 67 38 111 97 80 233 346 268 354 17 324 17 31 50 4 332 42 348 352 22 358 9 356 37 10 105 42 55 34 3 2 325 349 360 50 284 325 303 187 85 16 40 354 111 59 115 57 323 10 34 348 35 118 271 255 273 49 62 208 296 17 41 11 356 348 354 348 347 7 6 11 15 22 12
318 315 313 316 230 238 184 228 239 311 308 300 35 56 72 264 11 85 191 333 249 292 70 295 337 70 25 354 67 344 335 335 3 32 43 27 35 34 360 133 69 44 344 5 316 343 25 38 284 318 283 44 9 103 241 3 11 65 74 41 93 270 34 321 8 307 217 180 151 311 252 34 61 247 20 27 13 353 341 345 351 20 25 12 15 15 19 18
317 315 312 292 212 202 242 262 358 324 324 5 67 47 62 93 51 258 302 317 264 228 311 133 285 2 358 64 341 328 320 58 320 36 18 6 98 26 315 58 176 135 341 269 326 14 285 285 355 331 5 17 73 100 321 18 350 32 97 119 79 57 45 264 277 219 303 298 270 341 356 91 253 103 41 15 348 341 346 356 25 39 30 352 10 20 19 22
315 315 311 188 199 216 231 201 219 348 3 36 75 35 45 65 249 208 277 240 250 0 73 35 340 3 47 96 324 16 25 301 34 322 49 314 51 35 328 343 36 19 79 118 54 171 36 338 310 345 14 328 61 123 182 189 312 282 158 117 183 144 158 242 209 204 218 199 288 323 70 248 163 359 38 5 327 340 3 359 27 54 42 334 337 27 19 20
314 300 256 282 247 242 234 226 278 337 60 65 55 85 108 226 246 222 276 296 296 321 67 341 59 52 351 12 315 4 122 278 34 33 20 58 5 92 344 298 332 110 128 77 275 65 198 215 256 250 250 25 19 317 130 116 61 286 157 84 72 250 148 88 215 152 254 51 14 359 42 344 78 68 46 16 347 16 9 7 41 35 45 339 17 29 16 10
319 318 184 258 241 270 178 189 175 183 89 57 75 47 99 183 130 174 249 183 27 45 297 359 61 56 308 323 313 22 322 114 339 77 345 61 213 45 247 231 264 57 42 105 203 211 26 317 298 316 3 79 10 311 295 117 164 260 78 150 214 167 103 96 76 23 72 60 6 225 166 188 138 156 47 13 353 346 26 11 14 33 25 354 30 26 18 359
346 331 22 318 288 149 147 154 156 112 62 91 92 81 202 278 190 159 249 177 265 130 56 196 311 89 327 313 274 338 309 38 2 74 313 356 24 242 280 286 208 252 163 138 306 189 155 260 289 37 335 338 30 294 242 348 138 93 78 237 202 130 119 125 192 343 63 128 244 242 190 219 221 282 123 58 339 16 50 46 9 16 354 23 28 30 27 15
329 326 249 280 251 134 151 169 115 50 76 80 77 204 220 84 195 156 185 105 348 47 93 102 273 89 271 95 322 308 319 87 301 45 264 320 244 223 54 244 284 73 51 105 119 305 108 328 307 292 258 287 340 35 345 293 355 198 180 210 104 284 355 326 92 334 97 313 279 330 307 243 198 219 84 299 268 43 58 32 28 19 358 9 9 11 21 22
284 355 14 300 345 147 170 145 65 72 55 55 338 47 258 227 243 175 196 129 83 121 78 222 149 315 132 135 248 307 322 63 309 89 77 315 76 174 229 182 348 24 45 118 63 217 46 174 299 299 3 308 16 36 201 309 326 8 18 36 339 103 162 134 205 170 109 185 68 247 275 260 214 173 181 205 246 353 12 33 39 15 8 5 0 356 359 9
10 26 314 325 340 132 161 67 56 42 64 94 215 214 231 273 252 278 143 112 294 88 235 148 193 93 294 233 145 301 356 75 80 236 94 269 278 271 212 305 208 338 44 62 130 233 86 111 246 279 316 54 354 360 64 45 351 336 24 346 360 16 213 103 43 78 158 168 175 154 274 256 293 140 163 208 245 341 7 24 40 13 1 356 353 348 349 349
299 115 267 310 3 16 20 41 46 41 96 271 144 216 331 211 278 136 109 112 120 303 157 171 159 209 211 75 301 221 14 71 115 50 182 300 174 347 245 177 192 325 22 28 61 59 77 27 226 316 8 12 226 216 190 190 164 184 139 89 173 29 86 134 258 25 73 105 201 133 231 288 22 128 161 153 300 330 17 352 343 38 9 338 329 335 337 343
41 15 274 309 347 50 74 34 350 257 96 135 86 177 298 146 72 261 89 356 105 131 41 106 225 128 132 191 190 193 126 59 165 60 263 160 269 149 278 165 178 155 122 230 170 235 146 158 94 348 232 224 239 244 184 184 160 157 125 56 154 143 99 97 163 272 55 45 108 141 112 272 339 268 123 130 196 286 315 347 288 315 325 320 328 318 321 333
68 209 254 337 339 88 69 48 294 34 304 240 294 293 243 321 159 228 139 343 71 107 37 53 193 143 236 165 228 185 150 206 162 230 197 223 258 216 230 148 143 67 85 359 31 283 134 66 55 303 308 296 309 323 68 55 118 73 1 51 59 1 248 169 179 186 135 309 64 1 136 252 278 129 132 152 203 269 31 132 179 1 335 345 331 330 345 358
247 267 317 308 35 91 75 214 341 308 277 317 22 282 300 211 144 63 235 242 139 111 161 175 3 179 28 100 113 239 184 75 216 156 335 178 277 249 261 261 188 192 97 230 133 248 61 309 121 31 360 338 342 350 13 339 52 82 307 319 291 283 47 185 103 59 117 210 163 125 224 245 224 31 356 60 39 83 83 40 139 109 341 322 326 330 357 353
275 277 235 300 351 79 206 188 138 215 274 280 319 329 336 13 229 205 161 190 121 155 114 248 199 125 62 106 69 33 135 149 278 266 155 182 245 307 303 172 203 210 195 219 132 124 87 197 89 115 112 33 320 330 289 307 286 283 238 326 15 57 30 57 234 321 137 281 116 127 225 269 130 2 19 21 8 67 12 324 338 178 247 307 320 341 358 0
357 171 303 340 11 35 88 94 115 148 269 274 337 276 168 340 328 310 132 16 160 111 80 136 14 87 65 51 17 10 341 6 116 244 129 291 288 303 242 1 137 238 192 119 97 71 127 94 94 159 152 178 206 208 245 143 11 41 307 8 328 18 347 104 97 97 214 173 146 229 170 150 184 186 185 229 11 127 168 310 36 344 315 296 279 321 355 346
323 323 171 199 341 43 193 8 108 81 254 156 259 244 274 226 237 325 166 145 241 135 60 46 171 130 298 76 205 286 266 294 349 141 215 199 253 252 313 273 3 142 111 85 47 86 66 43 13 125 127 185 180 203 199 154 343 245 356 330 337 14 349 109 174 230 161 100 301 241 196 142 196 206 227 253 256 257 252 248 256 236 272 287 299 308 347 2
107 255 105 195 136 247 189 292 118 69 296 93 250 20 255 292 14 179 340 84 110 24 123 330 109 163 182 181 143 142 328 338 345 249 345 211 331 324 31 23 78 317 57 60 25 113 133 110 293 69 327 286 214 243 228 156 173 203 228 246 326 335 38 109 227 213 132 147 214 193 158 150 201 211 210 213 192 195 199 214 215 225 281 316 348 352 341 336
169 281 239 281 179 247 160 189 177 167 218 211 261 193 285 252 263 223 182 15 32 36 99 222 270 248 169 166 123 178 167 68 307 292 194 207 28 358 35 1 26 16 73 36 33 124 90 334 197 85 317 329 314 320 23 76 340 225 225 221 244 107 288 201 280 211 173 189 189 158 170 191 203 206 205 221 213 199 225 241 289 291 248 268 293 304 304 305
264 149 280 356 79 164 229 52 121 76 288 215 200 248 179 205 227 268 309 127 131 293 63 147 236 215 169 159 131 148 213 190 189 254 242 141 14 67 175 189 194 345 23 141 97 346 102 277 89 52 48 308 295 318 1 41 325 306 279 212 187 175 28 229 138 4 100 62 59 123 137 226 255 192 194 253 232 170 69 134 217 242 272 262 277 293 292 297
242 203 195 152 281 277 37 41 101 131 142 318 200 273 119 220 230 195 236 170 155 183 177 207 195 130 95 134 175 238 230 202 197 221 184 154 123 219 130 277 148 341 352 23 17 342 73 231 54 75 43 314 335 347 311 326 324 288 295 266 193 128 135 218 154 213 118 166 122 90 114 249 264 195 86 77 126 151 174 214 237 251 241 244 260 272 285 284
289 288 88 111 196 297 190 83 48 92 253 231 176 238 163 249 220 138 80 267 215 190 183 180 173 129 30 152 231 230 234 195 209 217 184 197 143 185 218 167 152 172 177 135 249 149 125 134 118 94 57 275 295 306 315 345 5 13 328 313 183 200 144 281 287 224 206 145 116 144 227 216 216 173 133 191 178 202 212 227 242 260 248 224 232 248 259 267